User: anonymous
Location: Bismarck
(46.7731°N, 100.8200°W)
Time: 03:07:54
(UTC-05:00)
Language:

Cosmos 2219 Rocket - Orbit

View from above orbital plane
View from above orbital plane
View from above satellite
View from above satellite

Ground track
Ground track

The orbit data is extracted from the following two-line orbital elements,

1 22220U 92076B   14291.57520760 -.00000163  00000-0 -58092-4 0  4367
2 22220 070.9997 306.4147 0014938 309.4430 193.8779 14.16325957133053
Epoch (UTC): 18 October 2014 13:48:17
Eccentricity: 0.0014938
inclination: 70.9997°
perigee height: 827 km
apogee height: 848 km
right ascension of ascending node: 306.4147°
argument of perigee: 309.4430°
revolutions per day: 14.16325957
mean anomaly at epoch: 193.8779°
orbit number at epoch: 13305

The dashed part of the orbit path shows where the satellite is in the earth's shadow,  

DLR